User: anonymous   Login
Location: Cossonay
(46.5833°N, 6.4167°E)
Time: 15:33:26
(UTC+00:00)
Language:

Cosmos 1758 Rocket - Orbit

View from above orbital plane
View from above orbital plane
View from above satellite
View from above satellite

Ground track
Ground track

The orbit data is extracted from the following two-line orbital elements,

1 16792U 86046B   21136.51221826  .00000079  00000-0  67817-5 0  9999
2 16792  82.4806 297.3106 0022661 266.2047  93.6577 14.83283487865629
Epoch (UTC): 16 May 2021 12:17:35
Eccentricity: 0.0022661
inclination: 82.4806°
perigee height: 603 km
apogee height: 635 km
right ascension of ascending node: 297.3106°
argument of perigee: 266.2047°
revolutions per day: 14.83283487
mean anomaly at epoch: 93.6577°
orbit number at epoch: 86562

The dashed part of the orbit path shows where the satellite is in the earth's shadow,  

DLR